Tracking 25612 objects as of 20-May-2022
HD Live streaming from Space Station
objects crossing your sky now

MOLNIYA 3-41

Track MOLNIYA 3-41 now!
MOLNIYA 3-41 is classified as:


NORAD ID: 21706
Int'l Code: 1991-065A
Perigee: 2,017.9 km
Apogee: 37,701.7 km
Inclination: 64.1 °
Period: 704.7 minutes
Semi major axis: 26230 km
RCS: 14.2786 m2 (large)
Launch date: September 17, 1991
Source: Commonwealth of Independent States (former USSR) (CIS)
Launch site: PLESETSK MISSILE AND SPACE COMPLEX (PKMTR)
aabbcc
Your satellite tracking list
Your tracking list is empty




NASA's NSSDC Master Catalog

Two Line Element Set (TLE):
1 21706U 91065A   22140.02135125 -.00000691  00000-0  00000-0 0  9992
2 21706  64.1082 169.1139 6801875 256.2892  25.0548  2.04354964226289
Source of the keplerian elements: AFSPC